Location: Aufkirchen
(47.9603°N, 11.3653°E)
Time: 19:27:52
(UTC+01:00)

BlueWalker 3 - Visible Passes

Search period start: 27 November 2022 00:00
Search period end: 07 December 2022 00:00
Orbit: 500 x 519 km, 53.2° (Epoch: 27 November)

Date Brightness Start Highest point End Pass type
(mag) Time Alt. Az. Time Alt. Az. Time Alt. Az.
27 Nov 2.3 18:31:08 10° W 18:34:58 52° NNW 18:35:24 49° N visible
28 Nov 2.4 18:12:48 10° W 18:16:38 51° NNW 18:17:47 37° NE visible
28 Nov 5.1 19:52:10 10° WNW 19:52:36 13° WNW 19:52:36 13° WNW visible
29 Nov 2.5 17:54:29 10° W 17:58:18 49° NNW 18:00:09 26° NE visible
29 Nov 4.6 19:33:50 10° WNW 19:34:58 17° WNW 19:34:58 17° WNW visible
30 Nov 2.5 17:36:09 10° W 17:39:57 48° NNW 17:42:30 19° NE visible
30 Nov 4.0 19:15:29 10° WNW 19:17:19 23° NW 19:17:19 23° NW visible
01 Dec 2.5 17:17:48 10° W 17:21:36 47° NNW 17:24:50 14° ENE visible
01 Dec 3.4 18:57:08 10° WNW 18:59:39 30° NNW 18:59:39 30° NNW visible
02 Dec 2.6 16:59:28 10° W 17:03:15 46° NNW 17:07:02 10° ENE visible
02 Dec 2.9 18:38:46 10° WNW 18:42:00 37° NNW 18:42:00 37° NNW visible
03 Dec 2.6 18:20:25 10° WNW 18:24:06 39° N 18:24:22 38° NNE visible
03 Dec 5.3 19:59:11 10° WNW 19:59:12 10° WNW 19:59:12 10° WNW visible
04 Dec 2.6 18:02:02 10° WNW 18:05:45 39° N 18:06:46 33° NE visible
04 Dec 4.8 19:40:48 10° WNW 19:41:36 15° WNW 19:41:36 15° WNW visible
05 Dec 2.6 17:43:39 10° WNW 17:47:23 40° N 17:49:12 24° ENE visible
05 Dec 4.1 19:22:25 10° WNW 19:24:02 24° WNW 19:24:02 24° WNW visible
06 Dec 2.6 17:25:16 10° WNW 17:29:00 41° N 17:31:43 16° ENE visible
06 Dec 3.2 19:04:00 10° WNW 19:06:33 39° WNW 19:06:33 39° WNW visible
